カタログに戻る

FENGYUN 1C DEB

運用中SSO
NORAD 32186·DEBRIS·🇨🇳 China

打ち上げ May 10, 1999 から Taiyuan Satellite Launch Center

Loading…

次のパス (今後24時間)

TLE

最新Source: Space-Track

元期: Sep 12, 2026, 22:46 UTC

1 32186U 99025CUG 26255.94869505  .00000858  00000-0  69541-3 0  9990
2 32186  99.5865 314.1202 0272836 204.4470 331.6309 13.77062701663831

AllMySatでFENGYUN 1C DEBをリアルタイム追跡

Download on the App Store